Location: *
(43.9905°S, 176.4941°W)
Time: 15:32:17
(UTC+00:00)

Cosmos 1656 Rocket - Pass Details

Date: 08 December 2019
Orbit: 795 x 846 km, 71.1° (Epoch: 25 January)

Event Time Altitude Azimuth Distance (km) Brightness Sun altitude
Exits shadow 10:32:17 44° 35° (NE) 1,161 4.0 -21.6°
Maximum altitude 10:33:26 51° 72° (ENE) 1,065 4.0 -21.7°
Drops below altitude 10° 10:38:59 10° 146° (SE) 2,503 6.7 -22.0°
Sets 10:41:31 0° 150° (SSE) 3,446 7.6 -22.1°
